Temp
71 75 74 74 65 59 55 66 74 76 76 79 82 79 76 76 75 66 81 85 81 78 78 80 80 80 80 79 79 79 78 78 78 79 79 79 79 79 79 79 79 80 81 81 81 81 81 81 80
72 80 75 69 59 52 57 69 73 80 80 83 83 82 80 76 85 81 79 83 82 78 77 78 80 80 80 79 78 78 78 78 78 78 78 79 78 79 79 79 79 80 81 81 81 81 80 80 80
77 78 69 62 54 53 58 68 74 82 83 82 80 84 81 80 86 85 84 84 81 78 77 78 79 79 80 79 78 78 78 78 78 78 78 78 78 78 78 79 79 80 81 81 81 80 80 80 79
75 72 69 60 55 65 65 74 77 80 81 83 81 77 84 88 89 88 86 84 81 80 78 79 79 79 79 79 79 78 78 78 78 78 78 78 78 78 78 79 79 80 80 80 80 80 79 79 79
71 65 58 54 58 69 74 78 77 73 77 78 79 76 79 88 91 87 86 86 82 78 78 78 79 79 79 79 79 78 78 78 78 78 78 78 78 78 78 79 79 80 80 80 80 79 78 78 78
66 64 54 52 60 69 73 77 77 74 76 78 78 76 74 84 89 86 88 85 85 79 79 78 79 78 78 79 78 78 78 78 78 78 78 78 78 78 78 78 79 79 79 79 79 78 77 77 77
63 59 54 54 62 70 73 74 74 71 72 77 76 72 74 81 84 86 86 87 84 82 79 79 78 79 79 78 78 78 77 77 77 77 77 77 77 78 78 78 78 78 78 78 78 77 77 77 77
66 62 54 59 60 60 72 75 68 74 75 83 83 72 68 80 85 87 81 81 79 79 80 78 78 78 77 77 78 78 77 77 77 77 77 77 77 77 77 76 77 78 78 78 77 77 77 77 76
68 57 55 59 61 61 70 69 77 79 77 79 81 80 82 84 85 83 79 76 79 81 76 75 75 75 76 77 78 78 78 78 77 77 77 76 74 75 76 77 77 78 77 77 77 77 76 76 77
61 53 59 68 63 62 65 67 70 74 73 75 78 81 84 84 80 80 80 74 74 77 77 75 76 74 75 80 76 76 77 76 75 75 75 74 74 74 76 76 77 77 77 77 77 77 76 77 70
61 58 65 71 69 70 67 67 71 70 67 71 72 77 79 78 76 77 78 76 71 76 78 76 77 76 76 77 76 77 76 76 76 75 75 74 73 73 74 73 75 74 76 74 75 73 72 70 69
57 69 71 72 69 68 66 69 69 70 73 78 77 77 77 74 72 74 75 79 74 75 78 76 77 76 76 77 74 74 74 75 75 74 74 73 71 70 71 72 72 74 73 73 71 70 69 69 69
56 66 71 70 65 64 71 67 66 68 76 77 78 79 76 72 71 72 73 75 72 72 76 77 77 76 74 73 74 74 74 74 74 74 74 73 72 71 72 72 72 73 72 72 70 68 69 68 69
63 63 65 66 67 63 65 69 68 72 76 77 76 74 75 74 75 74 73 72 72 72 73 76 78 77 76 74 72 71 74 73 74 74 75 74 73 73 72 71 72 72 73 73 72 70 69 70 69
66 61 64 67 65 66 67 63 65 73 73 72 74 73 76 76 76 76 76 74 71 72 72 72 72 75 76 75 74 72 72 73 74 75 75 75 75 73 73 72 73 74 74 74 73 71 71 69 70
60 58 49 62 65 66 67 54 67 72 67 71 73 73 74 74 76 75 75 73 74 73 72 73 79 74 72 71 72 73 73 73 73 76 74 75 76 75 73 74 74 76 76 75 73 72 71 70 70
52 45 47 57 63 63 60 56 66 71 67 67 68 69 71 71 72 72 74 74 75 74 73 72 72 72 71 70 70 69 71 71 72 73 73 73 74 75 73 74 76 76 77 75 75 73 72 70 71
45 46 49 51 61 59 56 57 63 67 66 66 66 67 68 69 71 71 72 74 70 69 68 67 67 67 67 66 66 66 66 66 67 70 72 74 72 73 71 71 72 74 75 75 74 74 71 71 73
55 51 49 55 62 58 55 55 60 63 63 63 65 65 65 65 69 69 70 69 69 67 67 67 68 66 65 65 65 65 64 63 65 67 71 74 74 73 72 71 72 71 71 72 74 74 72 71 70
55 50 49 55 61 57 54 56 60 62 63 63 65 67 65 62 67 68 67 67 66 65 66 67 67 66 65 65 64 63 63 64 63 66 67 69 71 72 72 71 70 71 70 70 70 68 66 73 70
52 49 49 50 56 55 54 49 55 63 63 66 65 64 63 62 64 65 67 65 65 66 65 66 66 65 65 65 65 64 63 63 63 66 63 66 71 71 72 72 71 71 70 70 70 68 66 66 66
46 58 57 55 49 40 53 36 49 55 57 62 61 60 61 62 63 65 64 64 65 64 65 64 65 65 65 65 63 61 60 58 61 62 65 63 68 71 71 71 70 70 70 69 70 67 64 67 65
53 60 54 53 46 42 45 37 45 53 53 53 59 61 62 62 62 62 63 65 65 66 64 64 64 64 65 65 63 62 61 60 61 61 62 64 65 68 67 66 66 68 68 68 68 66 67 68 67
61 53 49 45 41 33 44 42 40 45 51 53 58 61 62 63 62 64 63 64 64 64 64 63 62 62 64 64 64 62 60 60 59 59 59 61 63 64 67 67 66 69 69 67 67 68 69 68 67
54 41 30 31 30 32 45 41 43 50 54 56 56 58 60 59 62 60 61 63 63 62 62 63 60 60 60 61 62 62 61 60 59 59 58 59 60 62 62 63 63 65 68 70 70 69 69 69 67
46 43 31 27 27 33 46 36 44 56 58 58 60 58 58 58 58 60 59 60 58 60 60 58 56 55 56 57 58 60 60 60 59 59 59 57 59 62 62 61 62 62 65 67 67 68 68 68 67
47 40 47 38 36 31 36 43 52 54 54 56 55 55 56 55 56 58 57 57 57 57 57 54 54 53 54 55 55 56 58 58 59 59 57 59 61 63 64 63 61 62 64 68 65 66 66 66 67
51 53 37 34 26 25 34 38 39 48 49 53 51 51 55 55 57 57 57 58 58 57 55 53 52 52 53 53 53 57 56 57 58 59 58 58 60 62 64 65 65 65 67 68 65 65 65 65 65
44 41 41 38 35 27 26 32 47 49 51 49 50 52 52 53 53 53 54 56 56 55 51 51 51 51 51 51 52 52 54 56 57 58 60 59 59 61 63 64 65 67 65 65 63 63 64 63 63
51 46 40 27 31 29 29 35 56 56 54 51 51 53 52 50 51 51 53 54 54 52 49 49 50 50 51 51 52 52 53 54 55 56 58 61 59 60 62 63 65 66 64 60 61 62 60 58 56
MSLP
1009.21 1008.88 1009.05 1009.45 1010.47 1010.36 1009.59 1007.27 1005.19 1004.04 1003.78 1003.95 1003.68 1004.21 1004.81 1005.17 1005.73 1006.81 1006.50 1006.49 1007.00 1007.78 1007.99 1008.39 1008.47 1008.58 1008.80 1009.07 1009.29 1009.63 1009.91 1010.32 1010.74 1010.99 1011.14 1011.33 1011.49 1011.73 1011.93 1012.06 1012.23 1012.31 1012.51 1012.73 1012.98 1013.12 1013.31 1013.50 1013.46
1009.11 1008.67 1008.88 1009.34 1010.25 1010.42 1008.97 1006.67 1005.36 1003.59 1003.57 1003.40 1003.71 1004.15 1004.47 1005.33 1005.29 1006.02 1006.61 1007.15 1007.29 1007.53 1007.96 1008.35 1008.64 1008.73 1008.88 1009.07 1009.29 1009.61 1009.99 1010.27 1010.65 1011.02 1011.27 1011.47 1011.74 1011.97 1012.10 1012.30 1012.47 1012.57 1012.67 1012.83 1012.99 1013.16 1013.31 1013.46 1013.57
1009.06 1009.10 1009.36 1009.95 1010.33 1010.04 1008.49 1006.40 1005.52 1004.13 1003.63 1003.26 1003.80 1003.93 1004.40 1004.98 1004.97 1005.37 1005.60 1006.65 1007.41 1007.90 1007.94 1008.19 1008.56 1008.85 1009.05 1009.21 1009.32 1009.62 1009.99 1010.45 1010.68 1010.98 1011.31 1011.55 1011.82 1012.02 1012.19 1012.30 1012.45 1012.63 1012.81 1012.93 1013.05 1013.15 1013.29 1013.35 1013.41
1009.33 1009.52 1009.93 1009.92 1010.17 1008.73 1007.85 1006.26 1004.87 1004.30 1003.24 1003.25 1003.70 1004.64 1004.58 1004.40 1004.56 1004.87 1005.90 1006.55 1007.19 1007.92 1007.99 1008.15 1008.57 1008.85 1008.99 1009.16 1009.34 1009.62 1010.03 1010.34 1010.59 1010.86 1011.23 1011.45 1011.75 1012.00 1012.15 1012.36 1012.49 1012.59 1012.70 1012.81 1012.97 1013.09 1013.16 1013.29 1013.32
1009.64 1010.28 1010.86 1010.46 1009.69 1008.34 1007.06 1005.70 1004.36 1004.55 1004.13 1004.20 1003.75 1004.73 1004.80 1004.68 1004.66 1005.16 1005.78 1006.33 1006.84 1007.65 1007.86 1008.15 1008.49 1008.77 1009.09 1009.23 1009.46 1009.59 1010.02 1010.39 1010.67 1010.79 1011.10 1011.48 1011.78 1012.01 1012.19 1012.41 1012.53 1012.53 1012.59 1012.70 1012.86 1013.06 1013.18 1013.21 1013.22
1010.21 1010.69 1011.40 1010.93 1009.44 1008.31 1006.75 1005.53 1005.39 1005.05 1005.14 1005.03 1004.90 1005.09 1005.31 1005.06 1005.11 1005.76 1005.58 1005.96 1006.49 1007.05 1007.43 1007.68 1008.19 1008.54 1008.90 1009.27 1009.51 1009.82 1010.02 1010.44 1010.74 1011.06 1011.24 1011.48 1011.83 1012.10 1012.28 1012.40 1012.52 1012.55 1012.57 1012.65 1012.77 1012.85 1012.97 1013.10 1013.23
1010.43 1011.02 1011.16 1010.44 1009.29 1008.41 1007.34 1005.84 1005.85 1005.78 1005.30 1005.08 1005.04 1005.67 1005.74 1005.10 1004.91 1005.41 1005.87 1006.21 1006.41 1006.83 1007.20 1007.25 1007.63 1008.03 1008.55 1009.07 1009.46 1009.74 1009.98 1010.26 1010.68 1010.96 1011.18 1011.39 1011.70 1011.91 1012.17 1012.30 1012.45 1012.51 1012.57 1012.53 1012.53 1012.68 1012.82 1012.87 1012.92
1010.22 1010.99 1010.97 1010.14 1009.13 1008.64 1007.45 1006.47 1006.24 1005.98 1005.59 1004.93 1005.03 1005.93 1006.05 1005.48 1004.75 1004.92 1005.58 1006.53 1007.27 1007.74 1007.42 1007.33 1007.19 1007.53 1008.00 1008.57 1009.13 1009.80 1010.00 1010.35 1010.52 1010.84 1011.10 1011.32 1011.54 1011.79 1012.03 1012.26 1012.42 1012.54 1012.58 1012.58 1012.57 1012.55 1012.69 1012.78 1012.76
1009.84 1010.86 1010.71 1009.81 1008.90 1008.61 1007.69 1007.27 1006.49 1006.16 1005.99 1005.58 1005.65 1005.95 1005.63 1005.41 1005.52 1005.13 1006.24 1006.91 1007.43 1007.76 1007.99 1008.28 1008.66 1008.34 1008.57 1008.98 1009.20 1009.41 1009.94 1010.28 1010.65 1010.88 1011.03 1011.27 1011.61 1011.86 1011.97 1012.16 1012.36 1012.48 1012.59 1012.69 1012.73 1012.71 1012.72 1012.75 1012.72
1010.18 1010.53 1009.96 1008.96 1008.50 1008.30 1007.90 1007.57 1007.28 1006.96 1006.62 1006.35 1005.96 1005.84 1006.06 1006.00 1006.04 1006.09 1006.09 1007.27 1007.30 1007.27 1007.55 1007.86 1008.26 1008.82 1008.64 1008.74 1009.20 1009.66 1009.77 1010.21 1010.55 1010.83 1011.13 1011.45 1011.60 1011.74 1011.87 1011.97 1012.16 1012.39 1012.49 1012.61 1012.73 1012.73 1012.74 1012.80 1012.81
1009.68 1009.67 1009.15 1008.47 1008.13 1007.80 1007.65 1007.53 1007.32 1007.35 1007.38 1007.04 1006.91 1006.61 1006.38 1006.34 1006.38 1006.39 1006.37 1006.78 1007.03 1006.67 1007.44 1007.92 1008.19 1008.29 1008.51 1008.54 1008.86 1009.30 1009.62 1009.92 1010.21 1010.43 1010.76 1011.10 1011.49 1011.70 1011.88 1012.06 1012.17 1012.37 1012.45 1012.62 1012.71 1012.74 1012.83 1012.90 1013.00
1009.57 1008.91 1008.53 1008.18 1007.91 1007.71 1007.61 1007.48 1007.40 1007.27 1007.31 1006.88 1006.79 1006.64 1006.53 1006.55 1006.60 1006.53 1006.54 1006.51 1006.86 1006.73 1006.91 1007.49 1008.18 1008.62 1008.65 1008.49 1008.98 1009.33 1009.69 1009.69 1009.74 1009.84 1010.11 1010.58 1010.94 1011.45 1011.67 1011.86 1012.16 1012.32 1012.49 1012.66 1012.77 1012.89 1012.96 1013.02 1012.95
1009.23 1008.71 1008.38 1008.03 1007.75 1007.83 1007.59 1007.61 1007.47 1007.29 1006.89 1006.73 1006.68 1006.61 1006.51 1006.42 1006.44 1006.43 1006.42 1006.31 1006.73 1006.71 1006.98 1007.18 1007.54 1007.91 1008.47 1008.77 1009.12 1009.34 1009.58 1009.92 1009.87 1009.90 1010.02 1010.22 1010.61 1010.96 1011.25 1011.60 1011.77 1012.04 1012.33 1012.53 1012.84 1012.92 1012.84 1012.81 1012.83
1009.29 1008.96 1008.47 1007.97 1007.70 1007.75 1007.76 1007.58 1007.45 1007.07 1006.66 1006.74 1006.58 1006.63 1006.52 1006.44 1006.32 1006.15 1006.24 1006.45 1006.51 1006.69 1006.91 1007.16 1007.34 1007.64 1008.06 1008.34 1008.64 1008.95 1009.28 1009.33 1009.71 1009.88 1009.85 1010.11 1010.28 1010.58 1010.98 1011.34 1011.63 1011.81 1011.90 1012.17 1012.31 1012.51 1012.59 1012.62 1012.57
1009.30 1009.17 1008.56 1007.84 1007.68 1007.53 1007.62 1007.76 1007.64 1006.86 1006.72 1006.88 1006.55 1006.56 1006.47 1006.36 1006.09 1006.25 1006.09 1006.22 1006.30 1006.79 1006.86 1007.19 1007.27 1007.37 1007.80 1008.13 1008.44 1008.67 1008.73 1009.04 1009.51 1009.67 1009.81 1010.05 1010.31 1010.49 1010.83 1010.82 1011.04 1011.22 1011.32 1011.52 1011.93 1012.04 1012.14 1012.29 1012.40
1009.76 1009.92 1010.05 1008.76 1008.36 1008.13 1008.10 1008.41 1007.54 1007.06 1007.33 1007.32 1006.79 1006.63 1006.45 1006.28 1005.98 1005.68 1005.82 1005.99 1005.99 1006.31 1006.82 1006.92 1007.22 1007.34 1007.54 1007.90 1008.05 1008.23 1008.45 1008.76 1008.84 1008.96 1009.35 1009.68 1009.75 1009.88 1010.46 1010.54 1010.32 1009.92 1010.39 1010.79 1011.33 1011.58 1011.80 1011.86 1011.86
1011.31 1011.22 1010.74 1009.77 1008.84 1008.77 1008.76 1008.76 1008.07 1007.40 1007.67 1007.69 1007.15 1006.76 1006.58 1006.31 1006.09 1005.68 1005.49 1005.45 1005.47 1005.66 1006.16 1006.69 1006.98 1007.16 1007.21 1007.47 1007.79 1008.13 1008.29 1008.36 1008.40 1008.51 1008.67 1009.05 1009.55 1009.85 1009.74 1009.98 1010.50 1010.06 1009.47 1009.66 1010.10 1010.81 1010.89 1010.85 1010.89
1011.74 1011.35 1010.90 1010.42 1009.31 1009.07 1009.09 1009.07 1008.83 1008.27 1007.87 1007.57 1007.41 1007.10 1006.85 1006.48 1005.80 1005.48 1005.60 1005.61 1005.80 1006.29 1006.65 1007.04 1007.30 1007.28 1007.47 1007.82 1008.09 1008.25 1008.38 1008.50 1008.60 1008.65 1008.69 1008.54 1008.83 1009.21 1009.34 1009.22 1009.74 1009.51 1009.58 1009.19 1009.08 1009.44 1010.18 1010.08 1009.44
1010.89 1011.07 1011.14 1010.48 1009.97 1009.71 1009.60 1009.22 1008.61 1007.80 1007.56 1007.35 1007.11 1006.83 1006.65 1006.03 1005.81 1005.59 1005.33 1005.49 1006.08 1006.52 1006.92 1007.45 1007.75 1008.12 1008.19 1008.48 1008.65 1008.64 1008.65 1008.65 1008.45 1008.15 1008.22 1008.39 1008.58 1008.50 1008.97 1008.76 1008.50 1008.87 1008.96 1008.79 1008.35 1008.28 1009.33 1010.06 1009.46
1010.56 1010.94 1011.26 1010.76 1010.51 1010.65 1010.37 1009.30 1008.52 1008.14 1007.68 1007.26 1006.99 1006.60 1006.64 1006.62 1006.72 1006.81 1006.54 1006.77 1006.94 1007.23 1007.55 1007.71 1007.90 1008.10 1008.25 1008.38 1008.73 1008.94 1009.05 1008.69 1008.74 1008.58 1008.52 1008.46 1008.30 1007.89 1007.80 1007.98 1007.87 1007.98 1008.18 1008.27 1008.85 1009.46 1008.58 1008.49 1009.46
1010.88 1011.42 1011.71 1011.84 1011.35 1011.19 1010.87 1009.92 1009.27 1008.25 1008.14 1007.40 1006.85 1007.43 1007.93 1007.80 1007.59 1007.59 1007.53 1007.56 1007.75 1007.92 1007.98 1008.10 1008.19 1008.29 1008.51 1008.55 1008.62 1008.79 1008.81 1008.84 1008.88 1008.82 1008.78 1008.39 1008.02 1007.55 1007.22 1007.10 1007.22 1007.57 1007.48 1007.46 1007.70 1009.53 1007.19 1008.91 1009.44
1011.30 1011.44 1011.85 1012.42 1013.07 1013.39 1012.87 1012.58 1010.93 1009.87 1009.61 1008.75 1008.39 1008.53 1008.92 1009.14 1008.79 1008.61 1008.49 1008.34 1008.51 1008.64 1008.69 1008.60 1008.60 1008.64 1008.68 1008.61 1008.87 1009.07 1009.26 1009.40 1008.98 1008.83 1008.52 1008.40 1007.95 1007.46 1007.08 1006.94 1006.80 1006.85 1007.26 1007.04 1007.09 1008.08 1007.06 1008.72 1008.33
1011.46 1011.67 1012.44 1012.88 1013.74 1014.26 1013.75 1013.77 1011.27 1010.51 1010.21 1009.76 1009.11 1009.11 1009.00 1009.14 1009.61 1009.92 1009.71 1009.51 1009.34 1008.95 1009.04 1008.91 1008.82 1008.65 1008.40 1008.18 1008.27 1008.48 1008.64 1008.66 1008.51 1008.37 1008.22 1007.96 1007.71 1007.24 1006.90 1006.77 1006.77 1006.76 1006.41 1006.64 1007.08 1007.06 1007.52 1007.37 1007.47
1011.56 1012.40 1012.96 1013.63 1014.45 1015.19 1014.52 1013.81 1011.93 1011.51 1010.79 1010.46 1009.82 1009.48 1009.47 1009.41 1009.13 1009.90 1009.95 1009.92 1009.96 1009.73 1009.51 1009.46 1009.52 1009.60 1009.40 1009.11 1008.68 1008.67 1008.73 1008.58 1008.47 1008.20 1008.08 1007.85 1007.64 1007.18 1006.65 1006.13 1006.26 1006.26 1005.97 1005.82 1005.39 1006.30 1006.71 1005.82 1005.88
1012.15 1013.89 1014.96 1015.50 1015.77 1015.43 1014.44 1013.71 1011.98 1011.30 1010.91 1010.65 1010.38 1010.20 1010.12 1010.22 1010.01 1010.33 1010.59 1010.51 1010.58 1010.28 1010.67 1010.27 1010.49 1010.29 1010.14 1009.98 1009.59 1009.15 1008.81 1008.51 1008.32 1007.94 1007.73 1007.55 1007.34 1007.08 1006.63 1006.27 1005.91 1005.63 1005.17 1004.93 1005.27 1005.63 1006.22 1005.38 1004.00
1012.79 1014.19 1015.80 1016.65 1016.87 1015.85 1014.87 1013.66 1011.65 1011.17 1010.78 1010.45 1010.39 1010.70 1010.81 1010.65 1010.54 1010.67 1010.91 1011.00 1010.72 1010.87 1010.68 1010.74 1011.00 1010.93 1010.55 1010.38 1010.09 1009.63 1009.19 1008.81 1008.20 1007.50 1007.28 1007.05 1006.87 1006.58 1005.98 1005.79 1005.27 1005.10 1005.13 1005.17 1005.22 1005.36 1005.31 1004.69 1004.46
1013.20 1014.07 1014.73 1016.23 1016.72 1016.39 1014.86 1013.14 1011.98 1011.38 1010.90 1010.82 1010.75 1010.66 1010.57 1010.50 1010.57 1010.60 1010.58 1010.73 1010.76 1010.86 1011.02 1010.99 1010.98 1010.94 1010.64 1010.61 1010.32 1009.88 1009.43 1009.03 1008.59 1007.89 1007.19 1006.48 1005.90 1005.66 1005.47 1005.02 1004.73 1004.39 1004.31 1004.28 1004.40 1004.49 1004.34 1004.23 1004.20
1013.03 1013.99 1015.24 1016.79 1017.46 1017.12 1015.31 1013.54 1012.06 1011.52 1010.80 1010.75 1010.99 1011.07 1010.75 1010.71 1010.64 1010.57 1010.54 1010.61 1010.56 1010.53 1010.70 1010.82 1010.72 1010.86 1010.75 1010.76 1010.34 1009.87 1009.50 1008.90 1008.44 1007.86 1007.07 1006.22 1005.68 1005.13 1004.79 1004.64 1004.27 1003.88 1003.62 1003.47 1003.54 1003.65 1003.70 1003.76 1003.73
1013.95 1014.65 1015.78 1016.94 1017.30 1017.03 1015.97 1013.44 1011.35 1011.16 1011.00 1011.03 1010.84 1010.85 1010.96 1011.08 1011.12 1011.30 1011.23 1010.85 1010.67 1010.45 1010.58 1010.63 1010.64 1010.59 1010.50 1010.40 1010.13 1009.82 1009.31 1008.58 1008.04 1007.55 1006.75 1005.90 1005.28 1004.82 1004.38 1004.18 1004.03 1003.47 1003.21 1003.03 1003.30 1003.61 1003.33 1003.43 1003.44
1014.16 1014.75 1015.89 1017.32 1017.35 1016.83 1015.81 1012.44 1011.23 1010.74 1010.81 1010.79 1010.80 1010.66 1010.78 1011.13 1011.39 1011.49 1011.40 1011.04 1010.84 1010.82 1010.91 1010.94 1010.75 1010.56 1010.27 1010.07 1009.77 1009.59 1008.91 1008.40 1007.94 1007.14 1006.42 1005.71 1005.11 1004.39 1004.00 1003.65 1003.51 1003.22 1002.73 1002.90 1002.94 1003.29 1003.59 1003.97 1004.39
Wind_Speed
8 7 2 3 5 5 2 8 4 7 6 5 8 10 10 4 4 4 3 7 17 12 10 11 15 17 18 17 18 16 16 16 15 14 14 15 15 15 14 14 13 13 13 13 12 12 11 10 11
5 5 3 3 5 4 7 5 7 3 8 12 11 6 7 4 4 8 5 9 13 13 9 10 14 15 17 18 18 17 16 17 16 15 14 15 13 13 13 12 12 12 13 13 12 11 10 9 9
4 2 4 5 3 3 4 4 7 9 7 5 6 4 5 4 3 7 8 15 13 10 9 11 15 15 16 17 17 17 17 16 16 15 15 14 13 13 13 13 12 12 12 12 11 10 9 9 8
3 5 5 4 4 7 3 12 14 6 2 7 9 7 4 3 6 8 15 17 14 11 9 14 15 15 16 17 17 17 17 17 17 16 15 15 14 13 13 12 12 12 13 12 11 10 9 8 8
3 3 4 4 5 5 6 9 7 2 5 7 2 4 5 3 6 18 17 16 16 11 10 11 15 15 14 16 17 17 16 16 15 16 16 15 14 13 12 12 11 12 12 12 11 10 9 8 8
4 4 4 3 6 6 9 7 4 6 6 5 9 5 1 3 7 8 14 15 15 15 14 14 17 16 16 15 16 15 16 16 15 15 15 15 14 12 11 11 11 11 12 12 12 11 10 9 8
5 4 4 3 6 4 6 8 7 5 5 8 4 4 3 3 1 9 12 10 12 13 13 13 14 17 18 16 15 16 16 16 15 15 15 15 15 14 12 11 11 11 11 12 12 12 11 10 10
5 5 2 4 3 4 7 8 3 6 3 4 3 3 3 6 3 9 8 8 5 1 6 11 12 13 13 13 18 15 15 15 15 15 14 14 15 14 13 11 11 12 12 12 12 12 11 11 10
2 4 4 5 1 1 6 7 10 3 5 4 5 6 5 2 8 7 9 6 6 4 2 2 1 5 8 8 11 15 16 14 13 13 14 11 6 8 11 11 11 12 12 11 11 11 11 11 11
5 4 8 6 1 3 3 4 4 6 9 6 8 8 6 7 6 7 6 7 5 9 9 8 8 6 7 8 8 7 8 7 7 6 7 5 6 7 9 10 13 13 13 12 12 11 11 10 4
4 6 6 7 5 4 2 0 1 3 4 3 4 9 6 4 6 6 7 6 2 6 5 6 9 10 10 8 8 7 5 7 8 10 9 8 5 5 5 3 5 5 11 5 7 6 4 5 4
3 8 7 5 1 3 3 2 3 3 7 6 7 6 4 4 4 4 5 8 5 5 10 9 7 7 6 4 6 5 5 7 7 10 12 8 6 6 5 5 6 6 4 6 4 3 4 5 6
3 4 4 3 4 3 2 3 3 5 9 6 7 8 7 3 2 2 2 5 5 3 6 8 8 8 7 5 5 5 6 5 5 6 8 8 7 7 6 6 5 6 5 6 5 4 5 5 6
3 3 6 5 8 4 3 4 1 7 8 8 6 6 8 5 5 5 3 3 2 2 6 6 9 8 7 7 7 6 5 5 5 5 7 10 7 7 6 6 7 7 7 7 7 7 7 8 6
4 7 9 9 6 6 5 6 6 10 5 8 7 6 7 9 7 9 8 6 4 2 4 8 6 7 8 8 7 6 6 5 5 5 6 9 8 7 8 7 8 8 8 9 7 7 6 5 5
6 6 5 9 7 6 10 8 10 11 4 8 8 8 8 9 11 10 10 8 8 6 8 7 4 9 8 7 5 4 4 4 5 5 5 7 10 10 7 7 9 10 9 8 7 7 7 7 6
7 2 3 9 4 1 4 8 10 10 6 10 9 9 8 8 10 10 10 10 9 9 7 8 9 7 7 5 3 4 4 4 5 4 5 5 6 8 5 6 7 8 10 10 9 8 8 7 7
3 2 4 5 7 3 4 7 7 7 5 9 8 9 9 9 11 7 6 8 4 6 6 7 3 4 4 4 3 3 3 2 2 2 4 6 7 9 5 6 6 4 7 9 9 11 8 7 10
3 3 4 5 6 6 7 8 10 9 7 9 9 9 7 2 3 4 7 9 10 9 10 8 8 4 3 2 2 1 2 3 3 1 1 4 5 9 12 10 10 7 5 10 13 12 11 9 6
2 3 6 5 6 6 8 17 9 7 7 6 10 12 7 2 6 8 10 10 10 8 8 8 8 7 5 4 2 3 3 4 2 4 6 5 7 9 10 12 11 11 9 7 2 9 4 8 8
5 4 4 5 7 7 7 11 7 13 7 16 15 13 10 8 11 9 10 8 7 7 7 7 7 8 6 6 3 3 2 2 3 3 4 5 6 7 8 11 10 12 11 11 6 3 1 4 5
3 4 5 6 6 2 5 8 6 6 7 13 11 10 9 10 8 8 7 8 7 5 6 7 7 7 4 4 4 3 3 2 3 3 2 5 7 7 7 11 8 11 9 9 11 6 5 11 8
6 4 5 4 5 2 5 2 8 4 5 2 6 7 10 8 8 8 9 9 7 6 5 6 6 5 3 3 3 2 2 3 2 3 5 4 6 6 6 6 7 8 7 10 11 8 11 11 10
1 5 7 5 5 1 4 6 6 1 3 1 5 8 8 7 8 7 6 7 7 9 9 8 8 8 9 8 5 3 4 6 5 5 4 4 3 6 6 8 8 10 8 10 10 13 15 11 9
9 7 5 7 5 6 5 5 9 2 2 4 5 7 7 6 7 8 8 7 6 8 6 5 7 6 8 9 9 8 8 7 7 6 4 5 4 4 7 6 6 5 8 10 12 12 14 11 10
2 7 6 4 4 6 5 7 7 6 6 5 6 6 3 4 4 5 5 5 6 6 7 8 7 7 8 8 9 10 11 7 6 6 5 4 4 5 8 7 6 8 7 5 8 9 11 11 11
2 2 5 3 2 2 4 2 4 5 2 5 5 1 5 3 2 3 3 2 2 2 3 5 3 3 6 7 6 8 9 11 10 12 8 5 6 4 7 8 7 8 7 7 9 8 10 10 10
5 2 4 4 2 5 5 4 6 7 2 4 4 4 6 6 7 5 5 6 5 3 2 4 4 3 4 6 5 7 10 10 9 10 11 9 7 6 6 9 9 9 9 7 6 5 7 8 6
4 4 2 1 5 7 4 7 6 7 7 7 7 8 6 6 3 4 5 5 5 5 3 3 4 3 4 5 6 7 9 12 12 9 11 11 7 8 6 6 10 12 7 7 4 4 6 6 3
8 9 5 6 8 4 4 9 6 11 10 7 5 4 5 4 3 4 6 8 7 5 2 3 4 5 5 6 7 9 9 10 11 11 11 13 11 8 6 6 9 10 7 2 4 6 5 8 8
Wind_Direction
314 299 176 74 45 67 267 265 266 3 55 339 86 94 104 89 67 155 26 145 129 143 147 150 144 139 134 131 129 129 128 126 124 121 119 118 119 120 119 119 120 123 130 131 130 131 134 136 138
321 317 49 90 81 44 289 270 352 148 142 134 105 112 60 79 96 121 115 143 139 138 143 147 149 144 141 139 138 137 137 135 132 129 127 122 121 123 122 122 124 129 135 138 139 140 140 143 147
293 258 72 88 102 156 242 277 318 307 181 153 105 65 92 117 85 134 139 142 135 145 148 151 151 149 146 146 144 144 143 142 139 138 138 133 133 131 133 138 141 143 146 148 149 147 150 156 159
349 1 21 79 254 259 254 287 255 262 52 48 114 79 66 192 159 140 140 140 142 153 151 149 150 153 154 154 151 149 150 150 149 147 147 146 146 147 148 151 152 152 156 158 158 158 163 170 174
38 57 45 331 274 281 302 284 292 69 78 356 159 109 109 46 113 136 145 149 152 152 151 148 150 153 158 159 158 155 155 154 156 153 154 155 156 160 158 159 161 162 164 166 165 166 171 180 187
18 97 61 265 271 315 292 303 31 47 18 56 56 78 100 292 87 147 153 159 160 158 161 157 158 156 160 164 163 161 158 159 160 160 161 161 163 168 170 167 171 173 171 171 174 174 182 187 198
111 81 212 237 269 343 323 308 58 63 29 19 151 77 316 345 65 109 169 167 160 160 162 164 164 164 163 166 167 166 164 163 164 165 167 168 172 175 179 178 183 183 182 181 180 182 187 193 199
112 95 254 238 252 290 318 358 355 47 33 305 100 106 227 245 288 82 101 113 118 100 169 173 170 165 163 166 165 171 166 169 167 168 171 175 178 181 185 188 193 193 194 193 192 191 193 199 203
100 72 234 245 284 289 322 23 333 293 50 9 352 48 329 330 353 41 90 115 123 158 135 118 169 147 153 157 171 165 170 170 172 174 176 173 180 189 194 197 202 200 200 203 203 204 204 206 211
120 144 221 206 229 302 301 40 324 14 350 348 358 357 26 43 29 25 7 105 177 193 182 169 162 171 149 167 161 170 167 172 172 175 181 185 189 189 197 204 207 208 207 208 211 214 214 216 219
194 208 221 264 253 219 215 68 291 53 341 270 299 308 329 40 32 35 353 93 111 206 157 179 180 171 172 166 165 177 179 180 186 181 184 190 187 199 204 200 213 212 216 215 217 222 222 219 219
251 243 216 236 295 295 215 185 315 205 237 248 272 255 297 16 22 3 350 327 76 154 170 169 182 187 183 151 161 177 185 191 189 195 187 187 187 193 200 194 206 212 220 220 218 220 236 241 236
194 318 281 298 327 294 311 291 250 256 268 276 285 315 264 235 226 177 343 320 83 150 165 183 169 173 174 157 163 176 189 199 217 202 198 192 195 198 197 205 192 206 208 213 223 223 225 232 239
287 271 311 279 285 235 232 274 105 257 274 297 284 272 271 303 288 306 317 279 332 127 160 176 185 180 170 176 172 175 172 194 197 207 207 206 205 201 195 194 204 206 207 216 216 213 218 230 227
290 354 343 311 289 257 104 328 247 258 305 287 289 270 228 223 235 232 239 243 245 162 154 173 183 171 172 170 171 176 185 177 192 214 215 214 214 215 211 196 198 208 213 214 223 228 226 231 234
12 42 12 288 322 324 121 253 270 270 285 253 251 251 259 255 223 220 221 212 198 188 171 201 203 174 171 164 175 184 193 187 190 191 196 206 218 219 216 219 212 199 202 209 210 217 219 226 229
3 221 237 313 327 129 168 247 258 303 312 285 286 283 271 263 268 257 228 202 209 205 181 175 165 174 164 148 110 149 178 189 199 214 213 206 235 263 206 229 250 229 206 201 203 216 213 211 222
248 330 299 287 279 14 253 253 277 271 250 253 263 269 263 268 264 275 249 257 312 18 17 46 69 100 91 65 45 23 4 311 304 230 223 211 188 218 199 240 237 235 229 220 205 210 208 216 212
179 212 255 267 320 360 335 306 307 288 301 306 296 289 299 287 77 20 35 74 88 68 77 78 93 93 99 82 66 360 295 257 254 289 327 229 222 234 232 234 227 237 224 236 219 208 206 221 204
6 12 329 293 344 23 323 299 285 292 298 286 286 286 198 88 87 43 68 75 77 91 93 78 80 63 48 53 31 45 6 334 331 316 318 282 238 229 224 226 222 221 229 241 307 257 202 204 196
10 89 336 292 335 350 357 330 356 321 343 22 48 51 41 64 74 70 76 79 86 92 105 102 95 94 83 88 79 39 20 344 349 331 319 300 291 247 221 232 230 228 233 237 215 250 273 264 237
21 308 322 317 10 266 72 284 304 305 22 44 60 62 48 39 32 55 63 55 60 74 92 100 103 104 107 110 99 128 175 217 234 255 268 296 286 245 226 217 195 213 241 252 230 193 216 246 248
232 297 288 258 237 88 330 108 264 356 59 69 88 76 76 61 47 28 34 27 34 88 109 134 140 146 158 109 109 117 283 246 285 309 328 330 303 284 230 228 233 222 196 226 249 237 229 235 231
284 12 338 13 111 109 209 187 283 272 275 360 341 67 56 45 67 43 43 52 41 27 24 31 15 358 355 343 322 286 286 294 316 312 318 309 291 288 275 212 225 243 235 221 216 241 243 216 187
59 47 344 0 9 212 252 12 244 312 48 137 64 52 51 38 40 31 23 24 33 53 27 40 25 8 352 344 325 306 279 265 269 279 274 302 308 286 255 237 231 233 228 208 211 216 231 224 240
214 146 156 256 231 253 288 237 241 200 208 168 132 118 83 40 53 79 55 28 23 22 24 30 26 14 8 1 350 342 328 310 291 266 262 267 253 264 274 265 259 246 234 230 219 220 232 230 221
266 267 188 178 270 13 237 311 355 211 252 139 139 67 355 351 152 123 83 77 47 44 56 99 64 14 12 349 341 335 334 332 325 307 290 269 267 255 279 272 257 259 242 223 204 218 226 227 218
147 218 0 358 269 265 279 238 237 223 153 182 213 231 263 310 318 338 2 351 336 342 59 51 48 21 333 326 320 324 310 308 310 310 298 284 276 274 297 304 287 269 269 261 228 208 241 229 237
331 328 320 205 155 196 251 242 216 204 208 220 243 240 255 300 333 341 330 318 300 297 62 29 6 344 319 308 307 307 304 309 307 305 308 294 277 277 291 295 302 291 250 249 232 235 243 222 115
245 256 153 130 280 230 189 254 246 276 294 283 241 259 282 53 23 336 318 302 307 338 15 342 327 317 303 302 312 301 296 300 304 304 306 307 291 282 281 299 307 292 298 15 130 118 102 106 113